Regional Weather Roundup
Issued by NWS Sioux Falls, SD

Home | Current Version | Previous Version | Text Only | Print | Product List | Glossary On
Versions: 1 2 3 4 5 6 7 8 9 10 11 12 13 14 15 16 17 18 19 20 21 22 23 24 25 26 27 28 29 30 31 32 33 34 35 36 37 38 39 40 41 42 43 44 45 46 47 48 49 50
000
ASUS43 KFSD 251810
RWRFSD

WEATHER ROUNDUP FOR SE SOUTH DAKOTA/SW MINNESOTA/NW IOWA
NATIONAL WEATHER SERVICE SIOUX FALLS SD
1200 PM CST SUN JAN 25 2015

NOTE: "FAIR" INDICATES FEW OR NO CLOUDS BELOW 12,000 FEET WITH NO
SIGNIFICANT WEATHER AND OR OBSTRUCTIONS TO VISIBILITY.


SDZ038>040-050-052>070-251900-
SOUTHEAST SOUTH DAKOTA

CITY           SKY/WX    TMP DP  RH WIND       PRES   REMARKS
CHAMBERLAIN    CLOUDY    36  34  91 N8        30.05S
6HR MIN TEMP:  35; 6HR MAX TEMP:  37;

HURON          CLOUDY    31  28  89 NW8       30.05R WCI  23
6HR MIN TEMP:  30; 6HR MAX TEMP:  31;

MADISON        CLOUDY    32  32 100 NW7       30.01R WCI  26
MITCHELL       CLOUDY    34  31  88 NW10      30.06R WCI  26
6HR MIN TEMP:  32; 6HR MAX TEMP:  34;

SIOUX FALLS    CLOUDY    34  31  88 N8        30.01R WCI  27
6HR MIN TEMP:  32; 6HR MAX TEMP:  34; 6HR PCP: TRACE;

WINNER         CLOUDY    39  32  76 NW16      30.05S
YANKTON        CLOUDY    34  30  86 NW9       30.05R WCI  26
$$

MNZ071-072-080-081-089-090-097-098-251900-
SOUTHWEST MINNESOTA

CITY           SKY/WX    TMP DP  RH WIND       PRES   REMARKS
FAIRMONT       CLOUDY    28  23  80 NE12      29.98S WCI  18
JACKSON        CLOUDY    30  27  86 VRB8      29.98R WCI  23
LUVERNE        CLOUDY    34  32  93 N5        30.00S WCI  30
MARSHALL       CLOUDY    28  25  86 N10       30.04R WCI  19
6HR MIN TEMP:  28; 6HR MAX TEMP:  32;

MONTEVIDEO     CLOUDY    30  27  86 E3        30.04R
PIPESTONE      CLOUDY    30  28  93 N6        29.98R FOG     WCI  24
REDWOOD FALLS  PTSUNNY   30  22  72 N7        30.02S WCI  23
TRACY          CLOUDY    30  27  89 NE7       30.01S WCI  23
WINDOM         PTSUNNY   28  25  86 N8        29.99S WCI  20
WORTHINGTON    CLOUDY    28  25  86 N7        29.99S WCI  21
$$

IAZ001>003-012>014-020>022-031-032-NEZ013-014-SDZ071-251900-
NORTHWEST IOWA

CITY           SKY/WX    TMP DP  RH WIND       PRES   REMARKS
CHEROKEE       CLOUDY    33  31  94 N10       29.99R WCI  25
DENISON        CLOUDY    36  36 100 N10G16    29.94S
ESTHERVILLE    CLOUDY    29  26  89 N12       29.97S WCI  19
LE MARS        CLOUDY    36  34  93 N10       30.01R
ORANGE CITY    CLOUDY    36  30  80 N9        29.99R
SHELDON        CLOUDY    32  32 100 N15       29.98S WCI  22
SIOUX CITY     CLOUDY    38  34  85 N15       30.00R
6HR MIN TEMP:  35; 6HR MAX TEMP:  38; 6HR PCP: TRACE;

SPENCER        CLOUDY    32  28  85 N12       29.99R WCI  23
6HR MIN TEMP:  31; 6HR MAX TEMP:  34; 6HR PCP: TRACE;

STORM LAKE     CLOUDY    32  30  93 N14       29.96F WCI  22
$$

ABBREVIATIONS USED IN REMARKS
   TC - TEMPERATURE IN CELSIUS
  WCI - WIND CHILL INDEX
   HX - HEAT INDEX
  VSB - VISIBILITY




USA.gov is the U.S. government's official web portal to all federal, state and local government web resources and services.